Skip Page Navigation
NASA JPL Caltech
NASA Logo - Jet Propulsion Laboratory + View the NASA Portal
+ Near-Earth Object (NEO) Program
Search JPL
JPL Home Earth Solar System Stars & Galaxies Technology
JPL Solar System Dynamics
BODIES ORBITS EPHEMERIDES TOOLS PHYSICAL DATA DISCOVERY FAQ SITE MAP
JPL Small-Body Database Browser
Search: [ help ]  
14080 Heppenheim (1997 GB)
Classification: Main-belt Asteroid          SPK-ID: 2014080
Ephemeris | Orbit Diagram | Orbital Elements | Physical Parameters | Discovery Circumstances | Close-Approach Data ]

[ show orbit diagram ]
Orbital Elements at Epoch 2457400.5 (2016-Jan-13.0) TDB
Reference: JPL 15 (heliocentric ecliptic J2000)
 Element Value Uncertainty (1-sigma)   Units 
e .08456347341771606 6.949e-08  
a 2.364947180693999 1.3187e-08 au
q 2.164959032645079 1.6667e-07 au
i 6.512250701377708 7.7038e-06 deg
node 28.93067231817453 4.3689e-05 deg
peri 128.2280462513044 5.9331e-05 deg
M 86.02096569648502 3.7669e-05 deg
tp 2457083.081373426847
(2015-Mar-01.58137343)
0.00013901 JED
period 1328.405286328986
3.64
1.1111e-05
3.042e-08
d
yr
n .2710016315840257 2.2667e-09 deg/d
Q 2.564935328742918 1.4302e-08 au
  Orbit Determination Parameters
   # obs. used (total)      873  
   data-arc span      14263 days (39.05 yr)  
   first obs. used      1976-05-30  
   last obs. used      2015-06-18  
   planetary ephem.      DE431  
   SB-pert. ephem.      SB431-BIG16  
   condition code      0  
   fit RMS      .55394  
   data source      ORB  
   producer      Otto Matic  
   solution date      2015-Jul-06 12:13:27  

Additional Information
 Earth MOID = 1.18 au 
 Jupiter MOID = 2.41939 au 
 T_jup = 3.535 
[ show covariance matrix ]

Ephemeris | Orbit Diagram | Orbital Elements | Physical Parameters | Discovery Circumstances | Close-Approach Data ]

Physical Parameter Table
Parameter Symbol Value Units Sigma Reference Notes
absolute magnitude H 14.9 mag n/a MPO337377  

14080 Heppenheim           Discovered 1997 Apr. 4 at the Starkenburg Observatory, Heppenheim.
The beautiful city of Heppenheim, with its medieval old town that was first mentioned in the year 755, is situated in a traditional wine-growing region of southwestern Germany. On a hill above the city the ruins of the Starkenburg castle dominate the picturesque scenery.
NOTE: some special characters may not display properly (any characters within {} are an attempt to place the proper accent above a character)
Reference: 20000726/MPCPages.arcLast Updated: 2013-03-29

[ show close-approach data ]
Ephemeris | Orbit Diagram | Orbital Elements | Physical Parameters | Discovery Circumstances | Close-Approach Data ]
ABOUT SSD CREDITS/AWARDS PRIVACY/COPYRIGHT GLOSSARY LINKS
FirstGov 2016-Feb-13 12:55 UT
(server date/time)  
NASA Home Page
Site Manager:   Ryan S. Park
Webmaster  Alan B. Chamberlin